Flag for Canada Weather past 2 weeks in Prince George, British Columbia, Canada

Now
75 °F

Passing clouds.


Feels Like: 77 °F
Forecast: 50 / 79 °F
Wind: No wind

Location: Prince George

Current Time: Jul 30, 2015 at 7:09:02 PM

Latest Report: Jul 30, 2015 at 6:00 PM


Visibility: 9 mi

Pressure: 30.12 "Hg (28.20 "Hg at 573m altitude)

Humidity: 34%

Dew point: 45 °F

Location of Prince GeorgeLocation

Historic Weather in Prince George — Graph

°F

Prince George temperature yesterday

Maximum temperature yesterday: 68 °F (at 3:00 PM)
Minimum temperature yesterday: 48 °F (at 6:00 AM)
Average temperature yesterday: 58 °F

Past Weeks' High & Low Weather Summary

 TemperatureHumidityPressure
High82 °F (Jul 18, 4:00 PM)100% (Jul 23, 4:00 AM)30.27 "Hg (Jul 23, 4:00 AM)
Low41 °F (Jul 30, 4:00 AM)28% (Jul 19, 5:00 PM)29.75 "Hg (Jul 20, 5:00 PM)
Average59 °F70%29.99 "Hg
* Reported Jul 15 6:00 PM — Jul 30 6:00 PM, Prince George, Weather by CustomWeather, © 2015

Note: Actual official high and low records may vary slightly from our data, if they occured in-between our weather recording intervals... More about our weather records

Advertising

Prince George weather history for previous 24 hours

 ConditionsComfort  
Time TempWeatherWind HumidityBarometerVisibility
6:00 PM
Thu, Jul 30
75 °FPassing clouds.No wind34%30.12 "Hg9 mi
5:00 PM77 °FScattered clouds.7 mph36%30.13 "Hg9 mi
4:00 PM75 °FPassing clouds.5 mph34%30.16 "Hg9 mi
3:00 PM73 °FSunny.5 mph41%30.18 "Hg9 mi
2:00 PM72 °FSunny.5 mph44%30.20 "Hg9 mi
1:00 PM70 °FSunny.7 mph43%30.22 "Hg9 mi
12:00 PM68 °FSunny.6 mph49%30.23 "Hg9 mi
11:00 AM63 °FSunny.No wind64%30.24 "Hg9 mi
10:00 AM61 °FScattered clouds.3 mph63%30.25 "Hg9 mi
9:00 AM55 °FScattered clouds.2 mph77%30.27 "Hg9 mi
8:00 AM52 °FPartly sunny.3 mph82%30.27 "Hg9 mi
7:00 AM46 °FSunny.No wind93%30.26 "Hg9 mi
6:00 AM41 °FPassing clouds.No wind100%30.27 "Hg9 mi
5:00 AM41 °FPartly cloudy.No wind93%30.26 "Hg9 mi
4:00 AM41 °FOvercast.2 mph93%30.25 "Hg9 mi
3:00 AM43 °FClear.No wind100%30.24 "Hg9 mi
2:00 AM45 °FClear.3 mph93%30.24 "Hg9 mi
1:00 AM46 °FFog.3 mph87%30.23 "Hg3 mi
12:00 AM48 °FClear.2 mph87%30.22 "Hg9 mi
11:00 PM
Wed, Jul 29
54 °FClear.5 mph82%30.22 "Hg9 mi
10:00 PM54 °FSunny.2 mph88%30.22 "Hg9 mi
9:00 PM55 °FPassing clouds.3 mph82%30.21 "Hg9 mi
8:00 PM63 °FScattered clouds.5 mph64%30.20 "Hg9 mi
7:00 PM63 °FPartly sunny.8 mph68%30.20 "Hg9 mi
Weather by CustomWeather, © 2015

See weather overviewHow to use our weather pages